301  
ASUS41 KALY 042210  
RWRALY  
 
NEW YORK STATE HOURLY WEATHER ROUNDUP  
NATIONAL WEATHER SERVICE ALBANY NY  
500 PM EST SUN DEC 04 2022  
 
NOTE: "FAIR" INDICATES FEW OR NO CLOUDS BELOW 12,000 FEET WITH NO  
SIGNIFICANT WEATHER AND/OR NO S TO VISIBILITY
.  
 
NYZ032-033-038>043-046>054-057>066-NYZ062>081-082-084-042300-  
EAST  
 
 
CITY SKY/WX TMP DP RH WIND PRES REMARKS
 
ALBANY PTCLDY 34 20 56 SE3 30.15R  
GLENS FALLS CLEAR 33 21 61 SW6 30.12R WCI 28  
POUGHKEEPSIE PTCLDY 37 21 52 CALM 30.15F  
NEWBURGH PTCLDY 37 19 48 W5 30.15S WCI 34  
MONTGOMERY CLEAR 32 21 64 CALM 30.15S  
WHITE PLAINS MOCLDY 39 22 50 CALM 30.15F  
ISLIP MOCLDY 39 25 57 CALM 30.19R  
NEW YORK CITY MOCLDY 44 19 36 N5 30.18R  
CENTRAL PARK MOCLDY 43 21 41 VRB3 30.20S  

 
 
NYZ005>009-017-018-044>046-055-056-042300-  
CENTRAL  
 
 
CITY SKY/WX TMP DP RH WIND PRES REMARKS
 
FULTON CLEAR 31 23 72 CALM 30.08F  
SYRACUSE PTCLDY 35 21 56 CALM 30.09F  
ROME CLEAR 29 20 69 E3 30.11F  
ELMIRA CLEAR 33 20 58 S3 30.07F  
BINGHAMTON CLEAR 31 18 58 S5 30.05F WCI 26  
MONTICELLO CLEAR 31 21 66 CALM 30.11F  

 
 
NYZ026>034-041>043-087-042300-  
NORTH  
 
 
CITY SKY/WX TMP DP RH WIND PRES REMARKS
 
WATERTOWN PTCLDY 34 21 59 S8G17 30.06F WCI 27  
FORT DRUM NOT AVBL  
OGDENSBURG FAIR 34 23 64 SW14 30.00F WCI 24  
MASSENA MOCLDY 33 23 66 SW10 30.03F WCI 25  
SARANAC LAKE CLOUDY 28 19 69 SW8 29.99S WCI 20  
PLATTSBURGH PTCLDY 30 17 58 S7 30.07F WCI 23  

 
 
NYZ001>004-010>016-019>021-085-042300-  
WEST  
 
 
CITY SKY/WX TMP DP RH WIND PRES REMARKS
 
NIAGARA FALLS CLEAR 35 24 64 SW20G29 30.05F WCI 24  
BUFFALO PTCLDY 35 22 58 SW15G25 30.05F WCI 25  
DUNKIRK CLEAR 36 17 46 S9 30.09F WCI 29  
JAMESTOWN CLEAR 30 17 58 SW9 30.07R WCI 22  
WELLSVILLE CLEAR 32 14 47 SW6 30.06S WCI 26  
ROCHESTER PTCLDY 33 21 61 SW12 30.08S WCI 24  
PENN YAN CLEAR 34 20 56 S3 30.07F  

 
 
KEY  
WCI = WIND CHILL INDEX  
VSB = VISIBILITY  
HX = HEAT INDEX  

 
 
 
CLICK HERE TO GO TO PREVIOUS BULLETINS.

The Nexlab NY Page
The Nexlab VT Page
The Nexlab MA Page
The Nexlab CT Page Main Text Page